Time,TemperatureF,DewpointF,PressureIn,WindDirection,WindDirectionDegrees,WindSpeedMPH,WindSpeedGustMPH,Humidity,HourlyPrecipIn,Conditions,Clouds,dailyrainin,SoftwareType,DateUTC
2013-08-19 00:01:00,63.5,46.6,29.35,SW,225,0.0,0.0,74,0.00,,,0.00,meteohub,2013-08-19 04:01:00,
2013-08-19 00:02:00,63.3,46.9,29.32,SW,225,0.0,0.0,75,0.00,,,0.00,meteohub,2013-08-19 04:02:00,
2013-08-19 00:07:00,63.1,46.8,29.32,SW,225,0.0,0.0,75,0.00,,,0.00,meteohub,2013-08-19 04:07:00,
2013-08-19 00:12:00,63.0,47.1,29.32,SW,225,0.0,0.0,76,0.00,,,0.00,meteohub,2013-08-19 04:12:00,
2013-08-19 00:17:00,62.8,46.9,29.32,SW,225,0.0,0.0,76,0.00,,,0.00,meteohub,2013-08-19 04:17:00,
2013-08-19 00:22:00,62.8,47.3,29.32,SW,225,0.0,0.0,77,0.00,,,0.00,meteohub,2013-08-19 04:22:00,
2013-08-19 00:27:00,62.6,47.1,29.32,SW,225,0.0,0.0,77,0.00,,,0.00,meteohub,2013-08-19 04:27:00,
2013-08-19 00:32:00,62.4,47.8,29.35,SW,225,0.0,0.0,79,0.00,,,0.00,meteohub,2013-08-19 04:32:00,
2013-08-19 00:37:00,62.2,47.3,29.35,SW,225,0.0,0.0,78,0.00,,,0.00,meteohub,2013-08-19 04:37:00,
2013-08-19 00:42:00,62.1,48.0,29.35,SW,225,0.0,0.0,80,0.00,,,0.00,meteohub,2013-08-19 04:42:00,
2013-08-19 00:47:00,61.9,48.4,29.35,SW,225,0.0,2.0,81,0.00,,,0.00,meteohub,2013-08-19 04:47:00,
2013-08-19 00:52:00,61.9,48.7,29.35,SW,225,0.0,2.0,82,0.00,,,0.00,meteohub,2013-08-19 04:52:00,
2013-08-19 00:57:00,61.9,48.7,29.35,SW,225,0.0,2.0,82,0.00,,,0.00,meteohub,2013-08-19 04:57:00,
2013-08-19 01:02:00,61.7,48.6,29.35,SW,225,0.0,0.0,82,0.00,,,0.00,meteohub,2013-08-19 05:02:00,
2013-08-19 01:07:00,61.5,48.4,29.35,SW,225,0.0,0.0,82,0.00,,,0.00,meteohub,2013-08-19 05:07:00,
2013-08-19 01:12:00,61.3,48.7,29.35,SW,225,0.0,0.0,83,0.00,,,0.00,meteohub,2013-08-19 05:12:00,
2013-08-19 01:17:00,61.3,48.7,29.35,SW,225,0.0,0.0,83,0.00,,,0.00,meteohub,2013-08-19 05:17:00,
2013-08-19 01:23:00,61.3,49.1,29.32,SW,225,0.0,0.0,84,0.00,,,0.00,meteohub,2013-08-19 05:23:00,
2013-08-19 01:28:00,61.3,49.5,29.32,WSW,248,2.0,0.0,85,0.00,,,0.00,meteohub,2013-08-19 05:28:00,
2013-08-19 01:33:00,61.2,49.3,29.32,WSW,248,2.0,2.0,85,0.00,,,0.00,meteohub,2013-08-19 05:33:00,
2013-08-19 01:38:00,61.2,49.3,29.32,WSW,248,0.0,2.0,85,0.00,,,0.00,meteohub,2013-08-19 05:38:00,
2013-08-19 01:43:00,61.2,49.3,29.32,WSW,248,0.0,2.0,85,0.00,,,0.00,meteohub,2013-08-19 05:43:00,
2013-08-19 01:48:00,61.2,49.6,29.32,WSW,248,0.0,2.0,86,0.00,,,0.00,meteohub,2013-08-19 05:48:00,
2013-08-19 01:53:00,61.3,49.5,29.32,SW,225,0.0,2.0,85,0.00,,,0.00,meteohub,2013-08-19 05:53:00,
2013-08-19 01:58:00,61.3,49.5,29.32,SW,225,0.0,1.0,85,0.00,,,0.00,meteohub,2013-08-19 05:58:00,
2013-08-19 02:03:00,61.3,49.5,29.32,SW,225,0.0,1.0,85,0.00,,,0.00,meteohub,2013-08-19 06:03:00,
2013-08-19 02:08:00,61.3,49.5,29.35,SW,225,0.0,0.0,85,0.00,,,0.00,meteohub,2013-08-19 06:08:00,
2013-08-19 02:13:00,61.2,48.9,29.35,SW,225,0.0,0.0,84,0.00,,,0.00,meteohub,2013-08-19 06:13:00,
2013-08-19 02:18:00,61.2,48.9,29.35,SW,225,0.0,0.0,84,0.00,,,0.00,meteohub,2013-08-19 06:18:00,
2013-08-19 02:23:00,61.0,48.7,29.35,SW,225,0.0,0.0,84,0.00,,,0.00,meteohub,2013-08-19 06:23:00,
2013-08-19 02:28:00,60.6,48.7,29.35,SW,225,0.0,0.0,85,0.00,,,0.00,meteohub,2013-08-19 06:28:00,
2013-08-19 02:33:00,60.6,48.7,29.35,SW,225,0.0,0.0,85,0.00,,,0.00,meteohub,2013-08-19 06:33:00,
2013-08-19 02:38:00,60.6,48.7,29.35,SW,225,0.0,0.0,85,0.00,,,0.00,meteohub,2013-08-19 06:38:00,
2013-08-19 02:43:00,60.4,48.6,29.35,SW,225,0.0,0.0,85,0.00,,,0.00,meteohub,2013-08-19 06:43:00,
2013-08-19 02:48:00,60.4,48.6,29.38,SW,225,0.0,0.0,85,0.00,,,0.00,meteohub,2013-08-19 06:48:00,
2013-08-19 02:53:00,60.3,48.4,29.38,SW,225,0.0,0.0,85,0.00,,,0.00,meteohub,2013-08-19 06:53:00,
2013-08-19 02:58:00,60.1,48.7,29.38,SW,225,0.0,0.0,86,0.00,,,0.00,meteohub,2013-08-19 06:58:00,
2013-08-19 03:03:00,60.1,49.1,29.35,SW,225,0.0,0.0,87,0.00,,,0.00,meteohub,2013-08-19 07:03:00,
2013-08-19 03:08:00,60.1,49.1,29.35,SW,225,0.0,0.0,87,0.00,,,0.00,meteohub,2013-08-19 07:08:00,
2013-08-19 03:13:00,60.1,48.7,29.35,SW,225,0.0,0.0,86,0.00,,,0.00,meteohub,2013-08-19 07:13:00,
2013-08-19 03:18:00,59.9,48.6,29.35,SW,225,0.0,0.0,86,0.00,,,0.00,meteohub,2013-08-19 07:18:00,
2013-08-19 03:23:00,59.7,49.5,29.35,SW,225,0.0,0.0,89,0.00,,,0.00,meteohub,2013-08-19 07:23:00,
2013-08-19 03:28:00,59.7,49.5,29.35,SW,225,0.0,0.0,89,0.00,,,0.00,meteohub,2013-08-19 07:28:00,
2013-08-19 03:33:00,59.5,48.9,29.35,SW,225,0.0,0.0,88,0.00,,,0.00,meteohub,2013-08-19 07:33:00,
2013-08-19 03:38:00,59.5,49.5,29.35,SW,225,0.0,0.0,89,0.00,,,0.00,meteohub,2013-08-19 07:38:00,
2013-08-19 03:44:00,59.4,48.7,29.35,SW,225,0.0,0.0,88,0.00,,,0.00,meteohub,2013-08-19 07:44:00,
2013-08-19 03:49:00,59.4,49.3,29.35,SW,225,0.0,0.0,89,0.00,,,0.00,meteohub,2013-08-19 07:49:00,
2013-08-19 03:54:00,59.4,49.3,29.35,SW,225,0.0,0.0,89,0.00,,,0.00,meteohub,2013-08-19 07:54:00,
2013-08-19 03:59:00,59.2,49.1,29.35,SW,225,0.0,0.0,89,0.00,,,0.00,meteohub,2013-08-19 07:59:00,
2013-08-19 04:04:00,59.2,49.5,29.35,WSW,248,0.0,0.0,90,0.00,,,0.00,meteohub,2013-08-19 08:04:00,
2013-08-19 04:09:00,59.2,49.8,29.35,WSW,248,0.0,0.0,91,0.00,,,0.00,meteohub,2013-08-19 08:09:00,
2013-08-19 04:14:00,59.0,49.6,29.35,WSW,248,0.0,0.0,91,0.00,,,0.00,meteohub,2013-08-19 08:14:00,
2013-08-19 04:19:00,59.0,50.7,29.35,West,270,0.0,0.0,94,0.00,,,0.00,meteohub,2013-08-19 08:19:00,
2013-08-19 04:24:00,58.8,50.2,29.35,West,270,0.0,0.0,93,0.00,,,0.00,meteohub,2013-08-19 08:24:00,
2013-08-19 04:29:00,58.8,50.2,29.35,West,270,0.0,0.0,93,0.00,,,0.00,meteohub,2013-08-19 08:29:00,
2013-08-19 04:34:00,58.6,50.0,29.35,West,270,0.0,0.0,93,0.00,,,0.00,meteohub,2013-08-19 08:34:00,
2013-08-19 04:39:00,58.6,50.0,29.35,West,270,0.0,0.0,93,0.00,,,0.00,meteohub,2013-08-19 08:39:00,
2013-08-19 04:44:00,58.5,49.5,29.35,West,270,0.0,0.0,92,0.00,,,0.00,meteohub,2013-08-19 08:44:00,
2013-08-19 04:49:00,58.3,49.3,29.35,West,270,0.0,0.0,92,0.00,,,0.00,meteohub,2013-08-19 08:49:00,
2013-08-19 04:54:00,58.3,49.6,29.35,West,270,0.0,0.0,93,0.00,,,0.00,meteohub,2013-08-19 08:54:00,
2013-08-19 04:59:00,58.1,49.1,29.35,West,270,0.0,0.0,92,0.00,,,0.00,meteohub,2013-08-19 08:59:00,
2013-08-19 05:04:00,58.1,49.1,29.35,West,270,0.0,0.0,92,0.00,,,0.00,meteohub,2013-08-19 09:04:00,
2013-08-19 05:09:00,57.9,49.3,29.35,West,270,0.0,0.0,93,0.00,,,0.00,meteohub,2013-08-19 09:09:00,
2013-08-19 05:14:00,57.9,49.3,29.35,West,270,0.0,0.0,93,0.00,,,0.00,meteohub,2013-08-19 09:14:00,
2013-08-19 05:19:00,57.9,49.6,29.35,West,270,0.0,0.0,94,0.00,,,0.00,meteohub,2013-08-19 09:19:00,
2013-08-19 05:25:00,57.7,49.5,29.35,West,270,0.0,0.0,94,0.00,,,0.00,meteohub,2013-08-19 09:25:00,
2013-08-19 05:30:00,57.7,49.5,29.35,West,270,0.0,0.0,94,0.00,,,0.00,meteohub,2013-08-19 09:30:00,
2013-08-19 05:35:00,57.6,49.3,29.35,West,270,0.0,0.0,94,0.00,,,0.00,meteohub,2013-08-19 09:35:00,
2013-08-19 05:40:00,57.6,49.6,29.35,West,270,0.0,0.0,95,0.00,,,0.00,meteohub,2013-08-19 09:40:00,
2013-08-19 05:45:00,57.7,50.5,29.35,West,270,0.0,0.0,97,0.00,,,0.00,meteohub,2013-08-19 09:45:00,
2013-08-19 05:50:00,57.9,50.7,29.35,West,270,0.0,0.0,97,0.00,,,0.00,meteohub,2013-08-19 09:50:00,
2013-08-19 05:55:00,57.9,50.7,29.35,West,270,0.0,0.0,97,0.00,,,0.00,meteohub,2013-08-19 09:55:00,
2013-08-19 06:00:00,57.9,50.7,29.35,West,270,0.0,0.0,97,0.00,,,0.00,meteohub,2013-08-19 10:00:00,
2013-08-19 06:05:00,57.9,50.7,29.35,West,270,0.0,0.0,97,0.00,,,0.00,meteohub,2013-08-19 10:05:00,
2013-08-19 06:10:00,57.9,51.1,29.35,West,270,0.0,0.0,98,0.00,,,0.00,meteohub,2013-08-19 10:10:00,
2013-08-19 06:15:00,57.9,51.1,29.35,West,270,0.0,0.0,98,0.00,,,0.00,meteohub,2013-08-19 10:15:00,
2013-08-19 06:20:00,57.9,51.8,29.35,West,270,0.0,0.0,100,0.00,,,0.00,meteohub,2013-08-19 10:20:00,
2013-08-19 06:25:00,57.9,51.8,29.35,West,270,0.0,0.0,100,0.00,,,0.00,meteohub,2013-08-19 10:25:00,
2013-08-19 06:30:00,58.1,52.0,29.35,West,270,1.0,2.0,100,0.00,,,0.00,meteohub,2013-08-19 10:30:00,
2013-08-19 06:35:00,57.9,51.8,29.35,West,270,1.0,2.0,100,0.00,,,0.00,meteohub,2013-08-19 10:35:00,
2013-08-19 06:40:00,57.9,51.4,29.35,West,270,1.0,2.0,99,0.00,,,0.00,meteohub,2013-08-19 10:40:00,
2013-08-19 06:45:00,57.9,51.4,29.35,West,270,1.0,2.0,99,0.00,,,0.00,meteohub,2013-08-19 10:45:00,
2013-08-19 06:50:00,57.9,51.4,29.35,West,270,0.0,2.0,99,0.00,,,0.00,meteohub,2013-08-19 10:50:00,
2013-08-19 06:55:00,57.7,51.3,29.35,West,270,1.0,1.0,99,0.00,,,0.00,meteohub,2013-08-19 10:55:00,
2013-08-19 07:00:00,57.9,51.4,29.35,West,270,0.0,2.0,99,0.00,,,0.00,meteohub,2013-08-19 11:00:00,
2013-08-19 07:05:00,57.9,51.4,29.32,West,270,0.0,2.0,99,0.00,,,0.00,meteohub,2013-08-19 11:05:00,
2013-08-19 07:11:00,57.9,51.8,29.32,West,270,0.0,1.0,100,0.00,,,0.00,meteohub,2013-08-19 11:11:00,
2013-08-19 07:16:00,58.1,52.0,29.32,West,270,0.0,0.0,100,0.00,,,0.00,meteohub,2013-08-19 11:16:00,
2013-08-19 07:21:00,58.1,52.0,29.35,West,270,0.0,0.0,100,0.00,,,0.00,meteohub,2013-08-19 11:21:00,
2013-08-19 07:26:00,58.5,52.3,29.35,West,270,0.0,0.0,100,0.00,,,0.00,meteohub,2013-08-19 11:26:00,
2013-08-19 07:31:00,58.6,52.5,29.35,West,270,0.0,0.0,100,0.00,,,0.00,meteohub,2013-08-19 11:31:00,
2013-08-19 07:36:00,58.8,52.7,29.35,West,270,0.0,0.0,100,0.00,,,0.00,meteohub,2013-08-19 11:36:00,
2013-08-19 07:41:00,59.2,52.7,29.35,West,270,0.0,0.0,99,0.00,,,0.00,meteohub,2013-08-19 11:41:00,
2013-08-19 07:46:00,59.4,52.9,29.35,West,270,0.0,0.0,99,0.00,,,0.00,meteohub,2013-08-19 11:46:00,
2013-08-19 07:51:00,59.7,53.2,29.35,West,270,0.0,0.0,99,0.00,,,0.00,meteohub,2013-08-19 11:51:00,
2013-08-19 07:56:00,60.1,53.6,29.35,West,270,0.0,0.0,99,0.00,,,0.00,meteohub,2013-08-19 11:56:00,
2013-08-19 08:01:00,60.6,54.1,29.35,West,270,0.0,0.0,99,0.00,,,0.00,meteohub,2013-08-19 12:01:00,
2013-08-19 08:06:00,61.0,54.1,29.35,West,270,0.0,0.0,98,0.00,,,0.00,meteohub,2013-08-19 12:06:00,
2013-08-19 08:11:00,61.7,54.9,29.35,West,270,0.0,0.0,98,0.00,,,0.00,meteohub,2013-08-19 12:11:00,
2013-08-19 08:16:00,62.2,54.9,29.35,West,270,0.0,1.0,97,0.00,,,0.00,meteohub,2013-08-19 12:16:00,
2013-08-19 08:21:00,63.1,55.4,29.35,WSW,248,0.0,1.0,96,0.00,,,0.00,meteohub,2013-08-19 12:21:00,
2013-08-19 08:26:00,63.7,54.9,29.35,West,270,2.0,2.0,93,0.00,,,0.00,meteohub,2013-08-19 12:26:00,
2013-08-19 08:31:00,64.6,55.0,29.35,SW,225,1.0,3.0,91,0.00,,,0.00,meteohub,2013-08-19 12:31:00,
2013-08-19 08:36:00,65.3,55.2,29.35,West,270,2.0,3.0,90,0.00,,,0.00,meteohub,2013-08-19 12:36:00,
2013-08-19 08:41:00,65.7,54.5,29.35,SW,225,0.0,3.0,87,0.00,,,0.00,meteohub,2013-08-19 12:41:00,
2013-08-19 08:46:00,65.8,53.4,29.35,WSW,248,0.0,2.0,84,0.00,,,0.00,meteohub,2013-08-19 12:46:00,
2013-08-19 08:51:00,66.6,52.7,29.32,WSW,248,1.0,2.0,81,0.00,,,0.00,meteohub,2013-08-19 12:51:00,
2013-08-19 08:56:00,66.9,54.0,29.32,SW,225,0.0,3.0,83,0.00,,,0.00,meteohub,2013-08-19 12:56:00,
2013-08-19 09:01:00,67.3,53.8,29.32,SW,225,0.0,3.0,82,0.00,,,0.00,meteohub,2013-08-19 13:01:00,
2013-08-19 09:06:00,67.8,53.4,29.35,WNW,292,1.0,3.0,80,0.00,,,0.00,meteohub,2013-08-19 13:06:00,
2013-08-19 09:11:00,68.5,51.3,29.35,SW,225,1.0,2.0,74,0.00,,,0.00,meteohub,2013-08-19 13:11:00,
2013-08-19 09:16:00,68.9,50.0,29.35,West,270,1.0,4.0,71,0.00,,,0.00,meteohub,2013-08-19 13:16:00,
2013-08-19 09:21:00,69.4,51.1,29.35,West,270,0.0,4.0,72,0.00,,,0.00,meteohub,2013-08-19 13:21:00,
2013-08-19 09:26:00,69.8,51.4,29.35,West,270,1.0,4.0,72,0.00,,,0.00,meteohub,2013-08-19 13:26:00,
2013-08-19 09:31:00,70.2,50.7,29.35,West,270,2.0,4.0,70,0.00,,,0.00,meteohub,2013-08-19 13:31:00,
2013-08-19 09:37:00,70.5,51.1,29.35,SW,225,1.0,3.0,70,0.00,,,0.00,meteohub,2013-08-19 13:37:00,
2013-08-19 09:41:00,70.9,50.7,29.35,West,270,2.0,3.0,69,0.00,,,0.00,meteohub,2013-08-19 13:41:00,
2013-08-19 09:47:00,71.1,50.9,29.35,WSW,248,0.0,3.0,69,0.00,,,0.00,meteohub,2013-08-19 13:47:00,
2013-08-19 09:52:00,71.6,50.9,29.32,SW,225,3.0,3.0,68,0.00,,,0.00,meteohub,2013-08-19 13:52:00,
2013-08-19 09:57:00,72.0,50.0,29.32,WSW,248,2.0,3.0,66,0.00,,,0.00,meteohub,2013-08-19 13:57:00,
2013-08-19 10:02:00,72.5,51.1,29.32,SW,225,0.0,3.0,67,0.00,,,0.00,meteohub,2013-08-19 14:02:00,
2013-08-19 10:07:00,73.0,51.6,29.32,SW,225,1.0,3.0,67,0.00,,,0.00,meteohub,2013-08-19 14:07:00,
2013-08-19 10:12:00,73.4,51.4,29.32,East,90,0.0,2.0,66,0.00,,,0.00,meteohub,2013-08-19 14:12:00,
2013-08-19 10:17:00,74.1,52.0,29.32,SSE,158,0.0,2.0,66,0.00,,,0.00,meteohub,2013-08-19 14:17:00,
2013-08-19 10:22:00,74.5,52.3,29.38,South,180,0.0,2.0,66,0.00,,,0.00,meteohub,2013-08-19 14:22:00,
2013-08-19 10:27:00,75.4,52.5,29.38,SW,225,0.0,2.0,65,0.00,,,0.00,meteohub,2013-08-19 14:27:00,
2013-08-19 10:32:00,76.5,53.6,29.38,SW,225,0.0,2.0,65,0.00,,,0.00,meteohub,2013-08-19 14:32:00,
2013-08-19 10:37:00,77.7,53.4,29.35,East,90,0.0,2.0,63,0.00,,,0.00,meteohub,2013-08-19 14:37:00,
2013-08-19 10:42:00,78.4,52.9,29.35,SW,225,0.0,2.0,61,0.00,,,0.00,meteohub,2013-08-19 14:42:00,
2013-08-19 10:47:00,79.5,53.1,29.35,West,270,2.0,2.0,60,0.00,,,0.00,meteohub,2013-08-19 14:47:00,
2013-08-19 10:52:00,79.5,50.2,29.35,SW,225,0.0,2.0,56,0.00,,,0.00,meteohub,2013-08-19 14:52:00,
2013-08-19 10:57:00,80.2,51.6,29.35,SW,225,0.0,3.0,57,0.00,,,0.00,meteohub,2013-08-19 14:57:00,
2013-08-19 11:02:00,80.8,51.3,29.35,SW,225,0.0,3.0,56,0.00,,,0.00,meteohub,2013-08-19 15:02:00,
2013-08-19 11:07:00,81.1,50.9,29.35,SW,225,0.0,3.0,55,0.00,,,0.00,meteohub,2013-08-19 15:07:00,
2013-08-19 11:12:00,81.0,49.1,29.35,SW,225,0.0,2.0,53,0.00,,,0.00,meteohub,2013-08-19 15:12:00,
2013-08-19 11:17:00,81.9,50.7,29.35,SW,225,0.0,3.0,54,0.00,,,0.00,meteohub,2013-08-19 15:17:00,
2013-08-19 11:22:00,82.2,51.1,29.35,SW,225,0.0,3.0,54,0.00,,,0.00,meteohub,2013-08-19 15:22:00,
2013-08-19 11:27:00,82.2,50.2,29.35,SW,225,1.0,3.0,53,0.00,,,0.00,meteohub,2013-08-19 15:27:00,
2013-08-19 11:32:00,82.4,47.8,29.35,SW,225,3.0,3.0,50,0.00,,,0.00,meteohub,2013-08-19 15:32:00,
2013-08-19 11:37:00,82.4,48.7,29.35,SW,225,4.0,4.0,51,0.00,,,0.00,meteohub,2013-08-19 15:37:00,
2013-08-19 11:42:00,82.2,47.7,29.35,SSW,202,0.0,4.0,50,0.00,,,0.00,meteohub,2013-08-19 15:42:00,
2013-08-19 11:47:00,82.8,48.2,29.35,West,270,1.0,4.0,50,0.00,,,0.00,meteohub,2013-08-19 15:47:00,
2013-08-19 11:52:00,82.6,48.0,29.35,SW,225,0.0,1.0,50,0.00,,,0.00,meteohub,2013-08-19 15:52:00,
2013-08-19 11:57:00,81.9,47.5,29.35,South,180,0.0,3.0,50,0.00,,,0.00,meteohub,2013-08-19 15:57:00,
2013-08-19 12:02:00,82.0,47.5,29.35,West,270,0.0,3.0,50,0.00,,,0.00,meteohub,2013-08-19 16:02:00,
2013-08-19 12:07:00,83.1,48.6,29.35,West,270,1.0,3.0,50,0.00,,,0.00,meteohub,2013-08-19 16:07:00,
2013-08-19 12:12:00,83.1,47.7,29.35,SW,225,0.0,3.0,49,0.00,,,0.00,meteohub,2013-08-19 16:12:00,
2013-08-19 12:17:00,82.8,47.3,29.35,SW,225,1.0,4.0,49,0.00,,,0.00,meteohub,2013-08-19 16:17:00,
2013-08-19 12:22:00,82.9,47.5,29.32,South,180,1.0,4.0,49,0.00,,,0.00,meteohub,2013-08-19 16:22:00,
2013-08-19 12:27:00,81.3,46.9,29.32,West,270,1.0,6.0,50,0.00,,,0.00,meteohub,2013-08-19 16:27:00,
2013-08-19 12:32:00,81.5,47.1,29.32,WSW,248,3.0,6.0,50,0.00,,,0.00,meteohub,2013-08-19 16:32:00,
2013-08-19 12:37:00,79.7,46.4,29.35,West,270,3.0,6.0,51,0.00,,,0.00,meteohub,2013-08-19 16:37:00,
2013-08-19 12:42:00,79.2,45.9,29.35,SW,225,2.0,6.0,51,0.00,,,0.00,meteohub,2013-08-19 16:42:00,
2013-08-19 12:47:00,80.1,46.8,29.35,SW,225,1.0,6.0,51,0.00,,,0.00,meteohub,2013-08-19 16:47:00,
2013-08-19 12:52:00,81.1,47.7,29.35,WSW,248,3.0,6.0,51,0.00,,,0.00,meteohub,2013-08-19 16:52:00,
2013-08-19 12:57:00,81.0,47.5,29.35,WSW,248,1.0,6.0,51,0.00,,,0.00,meteohub,2013-08-19 16:57:00,
2013-08-19 13:02:00,81.3,47.8,29.35,SW,225,3.0,5.0,51,0.00,,,0.00,meteohub,2013-08-19 17:02:00,
2013-08-19 13:07:00,81.5,47.1,29.32,WSW,248,4.0,5.0,50,0.00,,,0.00,meteohub,2013-08-19 17:07:00,
2013-08-19 13:12:00,81.3,46.9,29.32,West,270,0.0,6.0,50,0.00,,,0.00,meteohub,2013-08-19 17:12:00,
2013-08-19 13:17:00,82.0,47.5,29.32,NW,315,1.0,6.0,50,0.00,,,0.00,meteohub,2013-08-19 17:17:00,
2013-08-19 13:22:00,82.2,47.7,29.32,WNW,292,3.0,6.0,50,0.00,,,0.00,meteohub,2013-08-19 17:22:00,
2013-08-19 13:27:00,81.7,46.4,29.32,West,270,3.0,5.0,49,0.00,,,0.00,meteohub,2013-08-19 17:27:00,
2013-08-19 13:32:00,81.5,46.2,29.32,SW,225,0.0,8.0,49,0.00,,,0.00,meteohub,2013-08-19 17:32:00,
2013-08-19 13:37:00,82.0,46.6,29.32,SSW,202,2.0,8.0,49,0.00,,,0.00,meteohub,2013-08-19 17:37:00,
2013-08-19 13:42:00,81.5,46.2,29.32,NW,315,0.0,8.0,49,0.00,,,0.00,meteohub,2013-08-19 17:42:00,
2013-08-19 13:47:00,81.3,46.0,29.32,WSW,248,1.0,8.0,49,0.00,,,0.00,meteohub,2013-08-19 17:47:00,
2013-08-19 13:52:00,82.2,46.8,29.29,NW,315,3.0,8.0,49,0.00,,,0.00,meteohub,2013-08-19 17:52:00,
2013-08-19 13:57:00,82.6,44.2,29.29,West,270,1.0,5.0,46,0.00,,,0.00,meteohub,2013-08-19 17:57:00,
2013-08-19 14:02:00,82.2,43.9,29.29,WSW,248,3.0,4.0,46,0.00,,,0.00,meteohub,2013-08-19 18:02:00,
2013-08-19 14:07:00,81.1,45.0,29.29,SW,225,6.0,6.0,48,0.00,,,0.00,meteohub,2013-08-19 18:07:00,
2013-08-19 14:12:00,80.6,45.5,29.29,NW,315,1.0,6.0,49,0.00,,,0.00,meteohub,2013-08-19 18:12:00,
2013-08-19 14:17:00,80.6,45.5,29.29,NW,315,0.0,6.0,49,0.00,,,0.00,meteohub,2013-08-19 18:17:00,
2013-08-19 14:22:00,81.5,44.2,29.29,West,270,6.0,6.0,47,0.00,,,0.00,meteohub,2013-08-19 18:22:00,
2013-08-19 14:27:00,81.3,44.2,29.29,SW,225,1.0,6.0,47,0.00,,,0.00,meteohub,2013-08-19 18:27:00,
2013-08-19 14:32:00,81.0,41.9,29.29,SW,225,1.0,6.0,45,0.00,,,0.00,meteohub,2013-08-19 18:32:00,
2013-08-19 14:37:00,81.5,44.2,29.29,SW,225,3.0,7.0,47,0.00,,,0.00,meteohub,2013-08-19 18:37:00,
2013-08-19 14:42:00,81.0,43.9,29.29,WSW,248,1.0,7.0,47,0.00,,,0.00,meteohub,2013-08-19 18:42:00,
2013-08-19 14:47:00,80.8,44.6,29.29,WNW,292,1.0,7.0,48,0.00,,,0.00,meteohub,2013-08-19 18:47:00,
2013-08-19 14:52:00,81.9,43.7,29.29,West,270,2.0,7.0,46,0.00,,,0.00,meteohub,2013-08-19 18:52:00,
2013-08-19 14:57:00,82.0,41.7,29.29,West,270,3.0,6.0,44,0.00,,,0.00,meteohub,2013-08-19 18:57:00,
2013-08-19 15:02:00,82.6,39.9,29.29,SW,225,3.0,9.0,42,0.00,,,0.00,meteohub,2013-08-19 19:02:00,
2013-08-19 15:07:00,83.1,39.2,29.29,WSW,248,4.0,9.0,41,0.00,,,0.00,meteohub,2013-08-19 19:07:00,
2013-08-19 15:12:00,83.8,41.0,29.29,SW,225,1.0,7.0,42,0.00,,,0.00,meteohub,2013-08-19 19:12:00,
2013-08-19 15:17:00,84.9,40.6,29.26,SW,225,1.0,6.0,41,0.00,,,0.00,meteohub,2013-08-19 19:17:00,
2013-08-19 15:22:00,84.6,39.0,29.26,SW,225,4.0,5.0,40,0.00,,,0.00,meteohub,2013-08-19 19:22:00,
2013-08-19 15:27:00,84.6,39.0,29.26,West,270,3.0,6.0,40,0.00,,,0.00,meteohub,2013-08-19 19:27:00,
2013-08-19 15:32:00,84.0,38.7,29.29,West,270,2.0,7.0,40,0.00,,,0.00,meteohub,2013-08-19 19:32:00,
2013-08-19 15:37:00,84.9,39.4,29.29,SW,225,3.0,7.0,40,0.00,,,0.00,meteohub,2013-08-19 19:37:00,
2013-08-19 15:43:00,85.6,39.9,29.29,WSW,248,2.0,7.0,40,0.00,,,0.00,meteohub,2013-08-19 19:43:00,
2013-08-19 15:48:00,86.2,39.2,29.32,North,0,1.0,6.0,39,0.00,,,0.00,meteohub,2013-08-19 19:48:00,
2013-08-19 15:53:00,87.1,39.9,29.32,West,270,2.0,4.0,39,0.00,,,0.00,meteohub,2013-08-19 19:53:00,
2013-08-19 15:58:00,86.5,39.4,29.32,SSW,202,2.0,4.0,39,0.00,,,0.00,meteohub,2013-08-19 19:58:00,
2013-08-19 16:03:00,86.7,39.6,29.29,SW,225,3.0,6.0,39,0.00,,,0.00,meteohub,2013-08-19 20:03:00,
2013-08-19 16:08:00,86.2,39.2,29.29,West,270,3.0,6.0,39,0.00,,,0.00,meteohub,2013-08-19 20:08:00,
2013-08-19 16:13:00,86.0,39.0,29.29,WSW,248,3.0,5.0,39,0.00,,,0.00,meteohub,2013-08-19 20:13:00,
2013-08-19 16:18:00,86.9,39.7,29.29,West,270,5.0,5.0,39,0.00,,,0.00,meteohub,2013-08-19 20:18:00,
2013-08-19 16:23:00,87.3,39.9,29.29,West,270,1.0,5.0,39,0.00,,,0.00,meteohub,2013-08-19 20:23:00,
2013-08-19 16:28:00,86.7,39.6,29.29,WSW,248,5.0,6.0,39,0.00,,,0.00,meteohub,2013-08-19 20:28:00,
2013-08-19 16:33:00,87.1,39.9,29.29,West,270,2.0,7.0,39,0.00,,,0.00,meteohub,2013-08-19 20:33:00,
2013-08-19 16:38:00,88.0,39.2,29.29,WSW,248,3.0,7.0,38,0.00,,,0.00,meteohub,2013-08-19 20:38:00,
2013-08-19 16:43:00,89.1,40.1,29.29,SW,225,2.0,7.0,38,0.00,,,0.00,meteohub,2013-08-19 20:43:00,
2013-08-19 16:48:00,89.1,40.1,29.29,SW,225,1.0,5.0,38,0.00,,,0.00,meteohub,2013-08-19 20:48:00,
2013-08-19 16:53:00,89.1,40.1,29.29,West,270,0.0,5.0,38,0.00,,,0.00,meteohub,2013-08-19 20:53:00,
2013-08-19 16:58:00,89.1,40.1,29.29,SW,225,2.0,4.0,38,0.00,,,0.00,meteohub,2013-08-19 20:58:00,
2013-08-19 17:03:00,88.2,39.4,29.29,SW,225,5.0,5.0,38,0.00,,,0.00,meteohub,2013-08-19 21:03:00,
2013-08-19 17:08:00,87.1,38.5,29.29,West,270,5.0,5.0,38,0.00,,,0.00,meteohub,2013-08-19 21:08:00,
2013-08-19 17:13:00,87.3,39.9,29.29,WSW,248,1.0,6.0,39,0.00,,,0.00,meteohub,2013-08-19 21:13:00,
2013-08-19 17:18:00,87.8,39.0,29.29,West,270,3.0,6.0,38,0.00,,,0.00,meteohub,2013-08-19 21:18:00,
2013-08-19 17:23:00,86.7,39.6,29.29,West,270,2.0,6.0,39,0.00,,,0.00,meteohub,2013-08-19 21:23:00,
2013-08-19 17:28:00,86.7,39.6,29.29,West,270,3.0,7.0,39,0.00,,,0.00,meteohub,2013-08-19 21:28:00,
2013-08-19 17:33:00,87.4,40.1,29.29,West,270,0.0,7.0,39,0.00,,,0.00,meteohub,2013-08-19 21:33:00,
2013-08-19 17:38:00,87.1,39.9,29.29,West,270,6.0,7.0,39,0.00,,,0.00,meteohub,2013-08-19 21:38:00,
2013-08-19 17:43:00,87.1,39.9,29.29,NW,315,4.0,6.0,39,0.00,,,0.00,meteohub,2013-08-19 21:43:00,
2013-08-19 17:48:00,87.6,40.3,29.29,West,270,3.0,6.0,39,0.00,,,0.00,meteohub,2013-08-19 21:48:00,
2013-08-19 17:53:00,87.4,40.1,29.29,West,270,2.0,6.0,39,0.00,,,0.00,meteohub,2013-08-19 21:53:00,
2013-08-19 17:58:00,87.4,40.1,29.29,WSW,248,4.0,8.0,39,0.00,,,0.00,meteohub,2013-08-19 21:58:00,
2013-08-19 18:03:00,87.6,40.3,29.26,WSW,248,2.0,8.0,39,0.00,,,0.00,meteohub,2013-08-19 22:03:00,
2013-08-19 18:08:00,88.0,39.2,29.26,NW,315,2.0,8.0,38,0.00,,,0.00,meteohub,2013-08-19 22:08:00,
2013-08-19 18:13:00,87.6,40.3,29.26,West,270,3.0,6.0,39,0.00,,,0.00,meteohub,2013-08-19 22:13:00,
2013-08-19 18:18:00,87.1,39.9,29.26,West,270,2.0,6.0,39,0.00,,,0.00,meteohub,2013-08-19 22:18:00,
2013-08-19 18:23:00,85.8,38.8,29.29,West,270,2.0,5.0,39,0.00,,,0.00,meteohub,2013-08-19 22:23:00,
2013-08-19 18:28:00,85.6,38.7,29.29,West,270,3.0,5.0,39,0.00,,,0.00,meteohub,2013-08-19 22:28:00,
2013-08-19 18:33:00,85.1,38.3,29.26,West,270,2.0,5.0,39,0.00,,,0.00,meteohub,2013-08-19 22:33:00,
2013-08-19 18:38:00,85.1,39.6,29.26,SW,225,1.0,4.0,40,0.00,,,0.00,meteohub,2013-08-19 22:38:00,
2013-08-19 18:43:00,85.1,39.6,29.26,West,270,1.0,4.0,40,0.00,,,0.00,meteohub,2013-08-19 22:43:00,
2013-08-19 18:48:00,85.1,39.6,29.26,WSW,248,1.0,5.0,40,0.00,,,0.00,meteohub,2013-08-19 22:48:00,
2013-08-19 18:53:00,85.1,39.6,29.26,West,270,3.0,5.0,40,0.00,,,0.00,meteohub,2013-08-19 22:53:00,
2013-08-19 18:58:00,85.1,39.6,29.26,West,270,2.0,5.0,40,0.00,,,0.00,meteohub,2013-08-19 22:58:00,
2013-08-19 19:03:00,84.6,39.0,29.26,WSW,248,2.0,5.0,40,0.00,,,0.00,meteohub,2013-08-19 23:03:00,
2013-08-19 19:08:00,84.4,39.0,29.26,WSW,248,3.0,5.0,40,0.00,,,0.00,meteohub,2013-08-19 23:08:00,
2013-08-19 19:13:00,84.4,39.0,29.26,West,270,1.0,5.0,40,-99.99,,,0.00,meteohub,2013-08-19 23:13:00,
2013-08-19 19:18:00,84.0,39.9,29.26,West,270,1.0,5.0,41,-99.99,,,0.00,meteohub,2013-08-19 23:18:00,
2013-08-19 19:23:00,81.9,39.4,29.26,West,270,2.0,5.0,42,-99.99,,,0.00,meteohub,2013-08-19 23:23:00,
2013-08-19 19:28:00,80.6,38.3,29.26,WSW,248,2.0,4.0,42,0.00,,,0.00,meteohub,2013-08-19 23:28:00,
2013-08-19 19:33:00,79.9,38.8,29.26,West,270,1.0,4.0,43,0.00,,,0.00,meteohub,2013-08-19 23:33:00,
2013-08-19 19:39:00,78.6,39.9,29.26,West,270,1.0,4.0,45,0.00,,,0.00,meteohub,2013-08-19 23:39:00,
2013-08-19 19:44:00,78.3,40.6,29.26,West,270,3.0,4.0,46,0.00,,,0.00,meteohub,2013-08-19 23:44:00,
2013-08-19 19:49:00,77.7,41.2,29.26,West,270,1.0,4.0,47,0.00,,,0.00,meteohub,2013-08-19 23:49:00,
2013-08-19 19:54:00,77.4,41.7,29.26,West,270,1.0,3.0,48,0.00,,,0.00,meteohub,2013-08-19 23:54:00,
2013-08-19 19:59:00,77.0,43.2,29.26,WSW,248,1.0,3.0,50,0.00,,,0.00,meteohub,2013-08-19 23:59:00,
2013-08-19 20:04:00,76.6,43.0,29.26,WSW,248,1.0,3.0,50,0.00,,,0.00,meteohub,2013-08-20 00:04:00,
2013-08-19 20:09:00,76.3,43.5,29.26,WSW,248,0.0,3.0,51,0.00,,,0.00,meteohub,2013-08-20 00:09:00,
2013-08-19 20:14:00,75.9,43.2,29.26,WSW,248,1.0,3.0,51,0.00,,,0.00,meteohub,2013-08-20 00:14:00,
2013-08-19 20:19:00,75.6,42.8,29.26,West,270,0.0,3.0,51,0.00,,,0.00,meteohub,2013-08-20 00:19:00,
2013-08-19 20:24:00,75.0,43.2,29.26,West,270,0.0,3.0,52,0.00,,,0.00,meteohub,2013-08-20 00:24:00,
2013-08-19 20:29:00,74.3,42.6,29.26,West,270,0.0,3.0,52,0.00,,,0.00,meteohub,2013-08-20 00:29:00,
2013-08-19 20:34:00,73.9,42.3,29.26,West,270,0.0,2.0,52,0.00,,,0.00,meteohub,2013-08-20 00:34:00,
2013-08-19 20:39:00,73.2,42.4,29.26,West,270,0.0,0.0,53,0.00,,,0.00,meteohub,2013-08-20 00:39:00,
2013-08-19 20:44:00,72.9,42.8,29.26,West,270,0.0,0.0,54,0.00,,,0.00,meteohub,2013-08-20 00:44:00,
2013-08-19 20:49:00,72.7,42.8,29.26,West,270,0.0,0.0,54,0.00,,,0.00,meteohub,2013-08-20 00:49:00,
2013-08-19 20:54:00,72.0,42.8,29.26,West,270,0.0,0.0,55,0.00,,,0.00,meteohub,2013-08-20 00:54:00,
2013-08-19 20:59:00,71.4,43.2,29.26,West,270,0.0,0.0,56,0.00,,,0.00,meteohub,2013-08-20 00:59:00,
2013-08-19 21:04:00,71.1,42.8,29.29,West,270,0.0,0.0,56,0.00,,,0.00,meteohub,2013-08-20 01:04:00,
2013-08-19 21:09:00,70.7,43.2,29.29,West,270,0.0,0.0,57,0.00,,,0.00,meteohub,2013-08-20 01:09:00,
2013-08-19 21:14:00,70.5,43.7,29.29,West,270,0.0,0.0,58,0.00,,,0.00,meteohub,2013-08-20 01:14:00,
2013-08-19 21:19:00,70.3,43.5,29.29,West,270,0.0,0.0,58,0.00,,,0.00,meteohub,2013-08-20 01:19:00,
2013-08-19 21:24:00,70.2,44.1,29.29,West,270,0.0,0.0,59,0.00,,,0.00,meteohub,2013-08-20 01:24:00,
2013-08-19 21:29:00,69.6,44.2,29.29,West,270,0.0,0.0,60,0.00,,,0.00,meteohub,2013-08-20 01:29:00,
2013-08-19 21:34:00,69.4,44.8,29.29,West,270,0.0,0.0,61,0.00,,,0.00,meteohub,2013-08-20 01:34:00,
2013-08-19 21:39:00,69.1,45.7,29.29,West,270,0.0,0.0,63,0.00,,,0.00,meteohub,2013-08-20 01:39:00,
2013-08-19 21:44:00,68.7,45.9,29.29,West,270,0.0,0.0,64,0.00,,,0.00,meteohub,2013-08-20 01:44:00,
2013-08-19 21:49:00,68.7,45.9,29.29,West,270,0.0,0.0,64,0.00,,,0.00,meteohub,2013-08-20 01:49:00,
2013-08-19 21:54:00,68.7,45.9,29.29,West,270,0.0,0.0,64,0.00,,,0.00,meteohub,2013-08-20 01:54:00,
2013-08-19 21:59:00,68.5,46.4,29.29,West,270,0.0,0.0,65,0.00,,,0.00,meteohub,2013-08-20 01:59:00,
2013-08-19 22:04:00,68.2,46.6,29.26,West,270,0.0,0.0,66,0.00,,,0.00,meteohub,2013-08-20 02:04:00,
2013-08-19 22:09:00,68.4,46.2,29.26,WSW,248,0.0,0.0,65,0.00,,,0.00,meteohub,2013-08-20 02:09:00,
2013-08-19 22:14:00,68.4,46.8,29.26,WSW,248,0.0,0.0,66,0.00,,,0.00,meteohub,2013-08-20 02:14:00,
2013-08-19 22:19:00,68.4,46.2,29.29,WSW,248,0.0,0.0,65,0.00,,,0.00,meteohub,2013-08-20 02:19:00,
2013-08-19 22:24:00,68.2,46.6,29.29,WSW,248,0.0,1.0,66,0.00,,,0.00,meteohub,2013-08-20 02:24:00,
2013-08-19 22:29:00,67.8,46.9,29.29,WSW,248,0.0,1.0,67,0.00,,,0.00,meteohub,2013-08-20 02:29:00,
2013-08-19 22:34:00,67.6,47.3,29.29,WSW,248,0.0,1.0,68,0.00,,,0.00,meteohub,2013-08-20 02:34:00,
2013-08-19 22:39:00,67.3,46.9,29.29,WSW,248,0.0,0.0,68,0.00,,,0.00,meteohub,2013-08-20 02:39:00,
2013-08-19 22:44:00,67.3,46.9,29.29,WSW,248,0.0,0.0,68,0.00,,,0.00,meteohub,2013-08-20 02:44:00,
2013-08-19 22:49:00,67.1,47.3,29.29,WSW,248,0.0,0.0,69,0.00,,,0.00,meteohub,2013-08-20 02:49:00,
2013-08-19 22:54:00,67.1,46.8,29.29,WSW,248,0.0,0.0,68,0.00,,,0.00,meteohub,2013-08-20 02:54:00,
2013-08-19 22:59:00,66.9,47.1,29.29,WSW,248,1.0,0.0,69,0.00,,,0.00,meteohub,2013-08-20 02:59:00,
2013-08-19 23:04:00,66.6,47.3,29.29,WSW,248,0.0,2.0,70,0.00,,,0.00,meteohub,2013-08-20 03:04:00,
2013-08-19 23:09:00,66.4,47.7,29.29,WSW,248,0.0,2.0,71,0.00,,,0.00,meteohub,2013-08-20 03:09:00,
2013-08-19 23:14:00,66.4,47.1,29.29,WSW,248,0.0,2.0,70,0.00,,,0.00,meteohub,2013-08-20 03:14:00,
2013-08-19 23:20:00,66.2,47.5,29.29,WSW,248,1.0,0.0,71,0.00,,,0.00,meteohub,2013-08-20 03:20:00,
2013-08-19 23:25:00,66.0,47.8,29.29,WSW,248,0.0,2.0,72,0.00,,,0.00,meteohub,2013-08-20 03:25:00,
2013-08-19 23:30:00,65.8,47.7,29.29,WSW,248,0.0,2.0,72,0.00,,,0.00,meteohub,2013-08-20 03:30:00,
2013-08-19 23:35:00,65.5,47.5,29.29,WSW,248,1.0,2.0,72,0.00,,,0.00,meteohub,2013-08-20 03:35:00,
2013-08-19 23:40:00,65.5,48.9,29.29,WSW,248,1.0,1.0,75,0.00,,,0.00,meteohub,2013-08-20 03:40:00,
2013-08-19 23:45:00,65.3,48.2,29.29,WSW,248,2.0,2.0,74,0.00,,,0.00,meteohub,2013-08-20 03:45:00,
2013-08-19 23:50:00,65.3,49.6,29.29,WSW,248,1.0,2.0,77,0.00,,,0.00,meteohub,2013-08-20 03:50:00,
2013-08-19 23:55:00,65.5,49.8,29.29,WSW,248,0.0,2.0,77,0.00,,,0.00,meteohub,2013-08-20 03:55:00,